THA434 WIII-VTBS

Flight info

Callsign THA434
Flight time 2h 59m
Altitude 40000
Route DOLTA DCT GUSKO DCT PARDI DCT VMR DCT VPK M751 VKB M644 ALUMO Y12 ALEMI TUMGA1C
Aircraft A333/H-SDE3GHIJ2J3J5M1RVWXY/LB2D1

Departure

Time 2026-04-30 18:08
Airport Soekarno-Hatta International Airport (WIII)

Arrival

Time 2026-04-30 21:07
Airport Suvarnabhumi Airport (VTBS)
Time Latitude Longitude Altitude Speed Heading
2026-04-30 17:39 -6.11663 106.66680 42 ft 0 kts 158°
2026-04-30 17:55 -6.11612 106.66658 41 ft 4 kts 156°
2026-04-30 17:56 -6.11550 106.66698 38 ft 4 kts 248°
2026-04-30 17:57 -6.11548 106.66702 39 ft 0 kts 249°
2026-04-30 18:00 -6.11594 106.66583 42 ft 11 kts 249°
2026-04-30 18:00 -6.11558 106.66378 42 ft 15 kts 339°
2026-04-30 18:01 -6.11361 106.66282 42 ft 11 kts 298°
2026-04-30 18:02 -6.11478 106.65931 42 ft 22 kts 248°
2026-04-30 18:02 -6.11657 106.65485 42 ft 24 kts 248°
2026-04-30 18:03 -6.11837 106.65031 43 ft 20 kts 248°
2026-04-30 18:04 -6.12002 106.64618 43 ft 22 kts 248°
2026-04-30 18:05 -6.12236 106.64033 42 ft 18 kts 246°
2026-04-30 18:06 -6.12059 106.63985 44 ft 0 kts 69°
2026-04-30 18:07 -6.11400 106.65638 43 ft 171 kts 67°
2026-04-30 18:08 -6.09486 106.68926 1851 ft 210 kts 31°
2026-04-30 18:09 -6.03507 106.72231 3689 ft 271 kts 33°
2026-04-30 18:10 -5.96762 106.75619 6243 ft 278 kts 351°
2026-04-30 18:11 -5.92913 106.69318 9256 ft 294 kts 287°
2026-04-30 18:11 -5.90621 106.63306 10975 ft 328 kts 294°
2026-04-30 18:12 -5.87630 106.56724 12545 ft 358 kts 295°
2026-04-30 18:13 -5.85497 106.52133 13766 ft 366 kts 295°
2026-04-30 18:13 -5.82593 106.45900 13928 ft 371 kts 295°
2026-04-30 18:14 -5.80034 106.40386 15092 ft 378 kts 295°
2026-04-30 18:15 -5.76674 106.33149 17027 ft 386 kts 296°
2026-04-30 18:15 -5.72386 106.26314 18716 ft 392 kts 326°
2026-04-30 18:16 -5.67688 106.23524 19709 ft 397 kts 333°
2026-04-30 18:16 -5.62816 106.20824 20693 ft 403 kts 332°
2026-04-30 18:17 -5.60358 106.19448 21163 ft 406 kts 332°
2026-04-30 18:17 -5.57882 106.18057 21663 ft 410 kts 332°
2026-04-30 18:17 -5.52874 106.15235 22602 ft 416 kts 332°
2026-04-30 18:18 -5.50341 106.13807 22863 ft 418 kts 332°
2026-04-30 18:18 -5.47807 106.12377 22900 ft 419 kts 332°
2026-04-30 18:18 -5.45267 106.10944 22897 ft 419 kts 332°
2026-04-30 18:18 -5.42725 106.09509 22897 ft 419 kts 332°
2026-04-30 18:19 -5.40185 106.08076 22896 ft 419 kts 332°
2026-04-30 18:19 -5.37643 106.06641 22895 ft 419 kts 332°
2026-04-30 18:19 -5.35104 106.05207 22892 ft 419 kts 332°
2026-04-30 18:19 -5.32564 106.03772 22889 ft 419 kts 332°
2026-04-30 18:20 -5.30022 106.02336 22897 ft 419 kts 332°
2026-04-30 18:20 -5.27482 106.00902 22895 ft 419 kts 332°
2026-04-30 18:20 -5.24941 105.99467 22889 ft 419 kts 332°
2026-04-30 18:20 -5.22400 105.98032 22890 ft 419 kts 332°
2026-04-30 18:21 -5.19859 105.96598 22889 ft 419 kts 332°
2026-04-30 18:21 -5.17322 105.95166 22886 ft 419 kts 332°
2026-04-30 18:21 -5.14786 105.93734 22890 ft 419 kts 332°
2026-04-30 18:21 -5.12245 105.92299 22890 ft 419 kts 332°
2026-04-30 18:22 -5.09700 105.90854 23069 ft 422 kts 332°
2026-04-30 18:22 -5.04569 105.87930 23955 ft 426 kts 332°
2026-04-30 18:22 -5.01979 105.86452 24359 ft 429 kts 332°
2026-04-30 18:23 -4.99378 105.84969 24744 ft 431 kts 332°
2026-04-30 18:23 -4.96765 105.83480 25126 ft 434 kts 332°
2026-04-30 18:23 -4.94133 105.81980 25508 ft 436 kts 332°
2026-04-30 18:23 -4.91493 105.80476 25877 ft 439 kts 332°
2026-04-30 18:24 -4.86155 105.77437 26607 ft 444 kts 332°
2026-04-30 18:24 -4.83462 105.75903 26969 ft 446 kts 332°
2026-04-30 18:24 -4.80796 105.74386 27327 ft 449 kts 332°
2026-04-30 18:25 -4.78034 105.72813 27687 ft 451 kts 332°
2026-04-30 18:25 -4.72574 105.69706 28348 ft 457 kts 332°
2026-04-30 18:25 -4.69801 105.68127 28677 ft 460 kts 332°
2026-04-30 18:26 -4.64210 105.64946 29358 ft 465 kts 332°
2026-04-30 18:26 -4.61386 105.63339 29696 ft 467 kts 332°
2026-04-30 18:26 -4.58556 105.61729 30013 ft 470 kts 332°
2026-04-30 18:27 -4.52849 105.58483 30589 ft 473 kts 332°
2026-04-30 18:27 -4.49983 105.56852 30879 ft 475 kts 332°
2026-04-30 18:28 -4.44215 105.53572 31454 ft 478 kts 332°
2026-04-30 18:28 -4.41315 105.51923 31732 ft 480 kts 332°
2026-04-30 18:28 -4.35495 105.48614 32407 ft 480 kts 332°
2026-04-30 18:29 -4.32592 105.46963 32812 ft 479 kts 332°
2026-04-30 18:29 -4.23905 105.42025 33948 ft 477 kts 332°
2026-04-30 18:30 -4.18141 105.38749 34580 ft 476 kts 332°
2026-04-30 18:30 -4.12381 105.35477 35201 ft 475 kts 332°
2026-04-30 18:31 -4.09502 105.33842 35497 ft 475 kts 332°
2026-04-30 18:31 -4.03755 105.30578 36082 ft 475 kts 333°
2026-04-30 18:32 -3.98023 105.27322 36692 ft 473 kts 333°
2026-04-30 18:32 -3.95159 105.25696 36946 ft 473 kts 333°
2026-04-30 18:32 -3.89180 105.23063 37499 ft 468 kts 344°
2026-04-30 18:33 -3.86094 105.22035 37782 ft 467 kts 345°
2026-04-30 18:33 -3.79895 105.20119 38329 ft 465 kts 346°
2026-04-30 18:33 -3.76797 105.19187 38593 ft 465 kts 346°
2026-04-30 18:34 -3.73698 105.18256 38793 ft 464 kts 346°
2026-04-30 18:34 -3.67515 105.16386 39184 ft 464 kts 346°
2026-04-30 18:34 -3.64428 105.15446 39406 ft 463 kts 346°
2026-04-30 18:35 -3.61348 105.14506 39620 ft 463 kts 346°
2026-04-30 18:35 -3.58268 105.13565 39779 ft 463 kts 346°
2026-04-30 18:35 -3.55181 105.12622 39887 ft 465 kts 346°
2026-04-30 18:36 -3.45893 105.09785 39895 ft 465 kts 346°
2026-04-30 18:37 -3.36604 105.06948 39896 ft 465 kts 346°
2026-04-30 18:37 -3.30452 105.05070 39900 ft 465 kts 346°
2026-04-30 18:38 -3.24265 105.03182 39896 ft 465 kts 346°
2026-04-30 18:38 -3.18067 105.01290 39892 ft 465 kts 346°
2026-04-30 18:39 -3.11878 104.99402 39895 ft 465 kts 346°
2026-04-30 18:39 -3.05688 104.97513 39905 ft 465 kts 346°
2026-04-30 18:40 -2.99498 104.95624 39902 ft 465 kts 346°
2026-04-30 18:40 -2.93307 104.93736 39911 ft 465 kts 346°
2026-04-30 18:41 -2.87137 104.91853 39907 ft 463 kts 346°
2026-04-30 18:41 -2.80975 104.89974 39898 ft 463 kts 346°
2026-04-30 18:42 -2.74800 104.88092 39899 ft 464 kts 346°
2026-04-30 18:42 -2.65540 104.85269 39891 ft 464 kts 346°
2026-04-30 18:45 -2.31597 104.74923 39893 ft 464 kts 346°
2026-04-30 18:46 -2.25415 104.73039 39891 ft 464 kts 346°
2026-04-30 18:46 -2.19242 104.71158 39881 ft 464 kts 346°
2026-04-30 18:47 -2.13054 104.69274 39884 ft 466 kts 346°
2026-04-30 18:47 -2.06889 104.67396 39884 ft 466 kts 346°
2026-04-30 18:48 -2.00687 104.65506 39885 ft 466 kts 346°
2026-04-30 18:48 -1.95495 104.63925 39886 ft 466 kts 346°
2026-04-30 18:49 -1.89294 104.62036 39884 ft 466 kts 346°
2026-04-30 18:49 -1.83081 104.60144 39880 ft 466 kts 346°
2026-04-30 18:50 -1.76853 104.58249 39883 ft 470 kts 346°
2026-04-30 18:50 -1.70626 104.56353 39879 ft 471 kts 346°
2026-04-30 18:51 -1.64359 104.54444 39878 ft 471 kts 346°
2026-04-30 18:51 -1.58101 104.52538 39877 ft 471 kts 346°
2026-04-30 18:52 -1.51829 104.50629 39877 ft 471 kts 346°
2026-04-30 18:52 -1.45571 104.48724 39879 ft 471 kts 346°
2026-04-30 18:53 -1.39264 104.46806 39878 ft 474 kts 346°
2026-04-30 18:53 -1.32949 104.44883 39880 ft 475 kts 346°
2026-04-30 18:54 -1.26621 104.42957 39882 ft 475 kts 346°
2026-04-30 18:54 -1.20299 104.41032 39879 ft 475 kts 346°
2026-04-30 18:55 -1.13980 104.39109 39880 ft 475 kts 346°
2026-04-30 18:55 -1.04502 104.36225 39878 ft 474 kts 346°
2026-04-30 18:56 -0.95105 104.33365 39877 ft 473 kts 346°
2026-04-30 18:57 -0.85656 104.30491 39878 ft 473 kts 346°
2026-04-30 18:57 -0.79373 104.28579 39878 ft 473 kts 346°
2026-04-30 18:58 -0.69932 104.25707 39879 ft 472 kts 346°
2026-04-30 18:59 -0.60531 104.22847 39879 ft 471 kts 346°
2026-04-30 19:00 -0.48564 104.20682 39883 ft 470 kts 356°
2026-04-30 19:01 -0.35544 104.19194 39878 ft 471 kts 356°
2026-04-30 19:02 -0.25790 104.18067 39883 ft 470 kts 356°
2026-04-30 19:03 -0.12788 104.16548 39875 ft 470 kts 356°
2026-04-30 19:04 0.00204 104.15032 39877 ft 470 kts 356°
2026-04-30 19:05 0.13169 104.13519 39875 ft 469 kts 356°
2026-04-30 19:06 0.26130 104.12006 39880 ft 469 kts 356°
2026-04-30 19:06 0.35846 104.10873 39879 ft 469 kts 356°
2026-04-30 19:07 0.45560 104.09739 39886 ft 469 kts 356°
2026-04-30 19:08 0.58518 104.08227 39885 ft 469 kts 356°
2026-04-30 19:09 0.68235 104.07092 39881 ft 469 kts 356°
2026-04-30 19:09 0.74707 104.06337 39882 ft 469 kts 355°
2026-04-30 19:10 0.87665 104.04825 39888 ft 469 kts 355°
2026-04-30 19:11 0.97319 104.03698 39883 ft 469 kts 355°
2026-04-30 19:12 1.03861 104.02934 39888 ft 469 kts 355°
2026-04-30 19:12 1.10334 104.02178 39881 ft 469 kts 355°
2026-04-30 19:13 1.23250 104.00671 39881 ft 469 kts 355°
2026-04-30 19:14 1.29725 103.99915 39881 ft 469 kts 355°
2026-04-30 19:14 1.36203 103.99158 39887 ft 469 kts 355°
2026-04-30 19:15 1.42680 103.98402 39884 ft 469 kts 355°
2026-04-30 19:15 1.52398 103.97267 39885 ft 468 kts 355°
2026-04-30 19:16 1.58868 103.96512 39884 ft 468 kts 355°
2026-04-30 19:17 1.68570 103.95378 39884 ft 468 kts 355°
2026-04-30 19:17 1.78268 103.94246 39885 ft 468 kts 355°
2026-04-30 19:18 1.87964 103.93113 39886 ft 468 kts 354°
2026-04-30 19:19 1.94425 103.92358 39885 ft 467 kts 354°
2026-04-30 19:19 2.04107 103.91227 39880 ft 467 kts 354°
2026-04-30 19:20 2.10559 103.90473 39877 ft 467 kts 354°
2026-04-30 19:21 2.20241 103.89341 39883 ft 467 kts 354°
2026-04-30 19:22 2.33146 103.87833 39882 ft 467 kts 354°
2026-04-30 19:22 2.42562 103.85471 39880 ft 468 kts 339°
2026-04-30 19:23 2.51483 103.81543 39884 ft 470 kts 336°
2026-04-30 19:24 2.60399 103.77467 39882 ft 470 kts 336°
2026-04-30 19:25 2.75280 103.70750 39873 ft 469 kts 336°
2026-04-30 19:26 2.87183 103.65386 39873 ft 469 kts 336°
2026-04-30 19:27 2.96109 103.61362 39874 ft 469 kts 336°
2026-04-30 19:28 3.05048 103.57331 39872 ft 470 kts 336°
2026-04-30 19:29 3.16985 103.51948 39875 ft 471 kts 336°
2026-04-30 19:30 3.28927 103.46561 39873 ft 472 kts 336°
2026-04-30 19:31 3.39903 103.41639 39877 ft 472 kts 338°
2026-04-30 19:31 3.49040 103.37982 39872 ft 471 kts 340°
2026-04-30 19:32 3.55141 103.35598 39874 ft 471 kts 340°
2026-04-30 19:32 3.61245 103.33190 39875 ft 471 kts 339°
2026-04-30 19:33 3.67337 103.30771 39882 ft 471 kts 339°
2026-04-30 19:33 3.73431 103.28348 39881 ft 471 kts 339°
2026-04-30 19:34 3.79522 103.25925 39883 ft 471 kts 339°
2026-04-30 19:35 3.88651 103.22296 39884 ft 471 kts 339°
2026-04-30 19:35 3.94735 103.19876 39882 ft 471 kts 339°
2026-04-30 19:36 4.00822 103.17456 39878 ft 470 kts 339°
2026-04-30 19:36 4.09951 103.13824 39884 ft 471 kts 339°
2026-04-30 19:37 4.15993 103.11420 39884 ft 470 kts 339°
2026-04-30 19:37 4.22067 103.09003 39883 ft 470 kts 339°
2026-04-30 19:38 4.28146 103.06584 39886 ft 470 kts 339°
2026-04-30 19:38 4.34269 103.04146 39899 ft 470 kts 339°
2026-04-30 19:39 4.40344 103.01728 39895 ft 470 kts 339°
2026-04-30 19:39 4.46417 102.99310 39900 ft 470 kts 339°
2026-04-30 19:40 4.52492 102.96890 39893 ft 469 kts 339°
2026-04-30 19:40 4.58555 102.94475 39897 ft 469 kts 339°
2026-04-30 19:41 4.64615 102.92060 39900 ft 469 kts 339°
2026-04-30 19:41 4.70667 102.89648 39903 ft 469 kts 339°
2026-04-30 19:42 4.76738 102.87229 39897 ft 469 kts 339°
2026-04-30 19:42 4.82802 102.84812 39897 ft 469 kts 339°
2026-04-30 19:43 4.88855 102.82400 39901 ft 467 kts 339°
2026-04-30 19:44 4.97893 102.78807 39891 ft 466 kts 339°
2026-04-30 19:44 5.03884 102.76426 39898 ft 466 kts 339°
2026-04-30 19:45 5.09927 102.74023 39891 ft 466 kts 339°
2026-04-30 19:45 5.15960 102.71624 39891 ft 466 kts 339°
2026-04-30 19:46 5.21997 102.69217 39889 ft 466 kts 339°
2026-04-30 19:46 5.27990 102.66801 39890 ft 464 kts 339°
2026-04-30 19:47 5.33979 102.64377 39888 ft 463 kts 339°
2026-04-30 19:47 5.39960 102.61975 39892 ft 463 kts 339°
2026-04-30 19:48 5.45947 102.59586 39889 ft 463 kts 339°
2026-04-30 19:48 5.51937 102.57198 39885 ft 463 kts 339°
2026-04-30 19:49 5.57926 102.54806 39886 ft 463 kts 339°
2026-04-30 19:49 5.66875 102.51227 39875 ft 460 kts 339°
2026-04-30 19:50 5.72823 102.48848 39877 ft 460 kts 339°
2026-04-30 19:50 5.78777 102.46466 39875 ft 460 kts 339°
2026-04-30 19:51 5.84726 102.44086 39869 ft 460 kts 339°
2026-04-30 19:51 5.90677 102.41704 39873 ft 460 kts 339°
2026-04-30 19:52 5.96628 102.39321 39875 ft 461 kts 339°
2026-04-30 19:52 6.02532 102.36958 39879 ft 460 kts 339°
2026-04-30 19:53 6.08477 102.34577 39882 ft 460 kts 339°
2026-04-30 19:53 6.14437 102.32227 39884 ft 460 kts 342°
2026-04-30 19:54 6.20668 102.30859 39884 ft 458 kts 352°
2026-04-30 19:54 6.26986 102.29963 39883 ft 459 kts 353°
2026-04-30 19:55 6.33323 102.29186 39862 ft 458 kts 354°
2026-04-30 19:55 6.39634 102.28481 39862 ft 455 kts 354°
2026-04-30 19:56 6.45908 102.27779 39861 ft 453 kts 354°
2026-04-30 19:56 6.52177 102.27063 39862 ft 453 kts 353°
2026-04-30 19:57 6.58433 102.26341 39863 ft 453 kts 353°
2026-04-30 19:57 6.64697 102.25618 39861 ft 453 kts 354°
2026-04-30 19:58 6.70953 102.24895 39863 ft 453 kts 353°
2026-04-30 19:58 6.77205 102.24174 39861 ft 452 kts 353°
2026-04-30 19:59 6.83449 102.23453 39862 ft 451 kts 353°
2026-04-30 20:00 6.92808 102.22373 39863 ft 451 kts 353°
2026-04-30 20:00 6.99044 102.21652 39862 ft 451 kts 353°
2026-04-30 20:01 7.08408 102.20570 39862 ft 451 kts 353°
2026-04-30 20:01 7.14608 102.19853 39860 ft 451 kts 353°
2026-04-30 20:02 7.23967 102.18770 39862 ft 451 kts 353°
2026-04-30 20:03 7.33324 102.17688 39863 ft 451 kts 353°
2026-04-30 20:03 7.39560 102.16966 39863 ft 451 kts 353°
2026-04-30 20:04 7.45801 102.16244 39854 ft 451 kts 353°
2026-04-30 20:05 7.55168 102.15159 39858 ft 452 kts 353°
2026-04-30 20:05 7.64538 102.14071 39857 ft 452 kts 353°
2026-04-30 20:06 7.70783 102.13347 39855 ft 452 kts 353°
2026-04-30 20:06 7.77030 102.12623 39859 ft 452 kts 353°
2026-04-30 20:07 7.83277 102.11898 39858 ft 452 kts 353°
2026-04-30 20:08 7.92646 102.10811 39862 ft 452 kts 353°
2026-04-30 20:08 7.98890 102.10087 39862 ft 452 kts 353°
2026-04-30 20:09 8.05141 102.09408 39863 ft 452 kts 354°
2026-04-30 20:09 8.14541 102.08592 39862 ft 452 kts 354°
2026-04-30 20:10 8.23947 102.07791 39864 ft 452 kts 354°
2026-04-30 20:11 8.33355 102.06967 39864 ft 452 kts 354°
2026-04-30 20:11 8.39622 102.06416 39865 ft 452 kts 354°
2026-04-30 20:12 8.48987 102.05594 39866 ft 452 kts 354°
2026-04-30 20:13 8.55257 102.05043 39869 ft 452 kts 353°
2026-04-30 20:13 8.61534 102.04492 39867 ft 453 kts 353°
2026-04-30 20:14 8.67815 102.03941 39864 ft 453 kts 353°
2026-04-30 20:14 8.74106 102.03388 39864 ft 454 kts 353°
2026-04-30 20:15 8.80393 102.02834 39867 ft 454 kts 353°
2026-04-30 20:15 8.86682 102.02281 39868 ft 454 kts 353°
2026-04-30 20:16 8.92966 102.01728 39864 ft 454 kts 353°
2026-04-30 20:16 8.98202 102.01267 39867 ft 454 kts 353°
2026-04-30 20:17 9.04498 102.00712 39865 ft 454 kts 353°
2026-04-30 20:17 9.10801 102.00158 39861 ft 454 kts 353°
2026-04-30 20:18 9.17098 101.99604 39865 ft 454 kts 353°
2026-04-30 20:18 9.23402 101.99048 39863 ft 454 kts 353°
2026-04-30 20:19 9.29705 101.98493 39866 ft 455 kts 353°
2026-04-30 20:19 9.36012 101.97942 39862 ft 455 kts 353°
2026-04-30 20:20 9.42319 101.97392 39870 ft 455 kts 353°
2026-04-30 20:20 9.48627 101.96842 39867 ft 455 kts 353°
2026-04-30 20:21 9.54931 101.96292 39871 ft 455 kts 353°
2026-04-30 20:21 9.61240 101.95741 39866 ft 455 kts 353°
2026-04-30 20:22 9.67554 101.95189 39866 ft 456 kts 353°
2026-04-30 20:22 9.73879 101.94636 39870 ft 457 kts 353°
2026-04-30 20:23 9.80207 101.94083 39872 ft 457 kts 353°
2026-04-30 20:23 9.86538 101.93529 39870 ft 457 kts 353°
2026-04-30 20:24 9.92829 101.92978 39869 ft 457 kts 353°
2026-04-30 20:24 9.99163 101.92423 39874 ft 457 kts 353°
2026-04-30 20:25 10.08648 101.91593 39875 ft 456 kts 353°
2026-04-30 20:26 10.18134 101.90761 39873 ft 456 kts 353°
2026-04-30 20:26 10.27614 101.89930 39867 ft 456 kts 353°
2026-04-30 20:27 10.40250 101.88822 39874 ft 455 kts 353°
2026-04-30 20:28 10.52859 101.87715 39872 ft 455 kts 353°
2026-04-30 20:30 10.68614 101.86330 39872 ft 455 kts 353°
2026-04-30 20:31 10.87234 101.83181 39872 ft 452 kts 346°
2026-04-30 20:32 11.02539 101.79691 39873 ft 452 kts 345°
2026-04-30 20:33 11.11745 101.77587 39872 ft 451 kts 345°
2026-04-30 20:34 11.20914 101.75490 39864 ft 450 kts 345°
2026-04-30 20:35 11.30081 101.73391 39869 ft 450 kts 345°
2026-04-30 20:35 11.39248 101.71292 39872 ft 450 kts 345°
2026-04-30 20:36 11.45357 101.69892 39866 ft 450 kts 345°
2026-04-30 20:37 11.54520 101.67791 39867 ft 450 kts 345°
2026-04-30 20:37 11.60633 101.66388 39872 ft 450 kts 345°
2026-04-30 20:38 11.66749 101.64985 39870 ft 451 kts 345°
2026-04-30 20:38 11.72865 101.63580 39872 ft 451 kts 345°
2026-04-30 20:39 11.82045 101.61471 39878 ft 450 kts 345°
2026-04-30 20:40 11.91199 101.59366 39867 ft 449 kts 345°
2026-04-30 20:40 11.97295 101.57964 39861 ft 449 kts 345°
2026-04-30 20:41 12.06432 101.55860 39865 ft 449 kts 345°
2026-04-30 20:41 12.12527 101.54457 39871 ft 449 kts 345°
2026-04-30 20:42 12.18620 101.53052 39874 ft 449 kts 345°
2026-04-30 20:43 12.27795 101.50936 39789 ft 454 kts 345°
2026-04-30 20:43 12.30890 101.50221 39298 ft 458 kts 345°
2026-04-30 20:43 12.34011 101.49501 38637 ft 462 kts 346°
2026-04-30 20:44 12.40272 101.48056 37130 ft 467 kts 345°
2026-04-30 20:44 12.43446 101.47323 36364 ft 470 kts 345°
2026-04-30 20:44 12.49855 101.45843 34906 ft 474 kts 345°
2026-04-30 20:45 12.56301 101.44354 33368 ft 475 kts 345°
2026-04-30 20:45 12.59510 101.43613 32163 ft 472 kts 345°
2026-04-30 20:45 12.62682 101.42744 30950 ft 468 kts 341°
2026-04-30 20:46 12.71848 101.39892 29172 ft 453 kts 341°
2026-04-30 20:46 12.74845 101.38958 28634 ft 448 kts 341°
2026-04-30 20:47 12.80767 101.37117 27540 ft 441 kts 341°
2026-04-30 20:47 12.83686 101.36210 27020 ft 437 kts 341°
2026-04-30 20:48 12.89470 101.34412 25912 ft 432 kts 341°
2026-04-30 20:48 12.92333 101.33522 25380 ft 429 kts 341°
2026-04-30 20:48 12.95177 101.32638 24841 ft 427 kts 342°
2026-04-30 20:48 12.98025 101.31753 24298 ft 426 kts 342°
2026-04-30 20:49 13.00854 101.30873 23763 ft 424 kts 342°
2026-04-30 20:49 13.03677 101.29994 23182 ft 423 kts 342°
2026-04-30 20:49 13.06481 101.29122 22608 ft 420 kts 342°
2026-04-30 20:50 13.12020 101.27399 21472 ft 414 kts 342°
2026-04-30 20:50 13.14771 101.26543 20938 ft 411 kts 342°
2026-04-30 20:50 13.17472 101.25702 20662 ft 401 kts 342°
2026-04-30 20:50 13.20093 101.24886 20206 ft 397 kts 342°
2026-04-30 20:51 13.22729 101.24065 19716 ft 395 kts 342°
2026-04-30 20:51 13.27958 101.22435 18740 ft 390 kts 342°
2026-04-30 20:51 13.30559 101.21624 18464 ft 381 kts 342°
2026-04-30 20:52 13.33057 101.20846 17943 ft 380 kts 342°
2026-04-30 20:52 13.35523 101.19918 17423 ft 376 kts 333°
2026-04-30 20:52 13.39966 101.17179 16453 ft 369 kts 326°
2026-04-30 20:53 13.42112 101.15760 15997 ft 365 kts 326°
2026-04-30 20:53 13.44243 101.14354 15537 ft 362 kts 326°
2026-04-30 20:53 13.46358 101.12962 15092 ft 360 kts 326°
2026-04-30 20:54 13.50546 101.10214 14201 ft 355 kts 326°
2026-04-30 20:54 13.52615 101.08857 13591 ft 354 kts 326°
2026-04-30 20:54 13.54695 101.07493 12944 ft 351 kts 326°
2026-04-30 20:55 13.58781 101.04815 11724 ft 345 kts 327°
2026-04-30 20:55 13.60765 101.03514 11450 ft 332 kts 327°
2026-04-30 20:55 13.62668 101.02265 11224 ft 318 kts 326°
2026-04-30 20:56 13.66304 100.99882 10228 ft 306 kts 327°
2026-04-30 20:56 13.68101 100.98703 9476 ft 305 kts 327°
2026-04-30 20:56 13.71643 100.96378 8058 ft 299 kts 327°
2026-04-30 20:57 13.73388 100.95232 7357 ft 297 kts 327°
2026-04-30 20:57 13.75117 100.94097 6818 ft 290 kts 327°
2026-04-30 20:57 13.76796 100.92999 6447 ft 284 kts 327°
2026-04-30 20:58 13.80049 100.90868 6112 ft 266 kts 328°
2026-04-30 20:58 13.81574 100.89870 6016 ft 253 kts 328°
2026-04-30 20:58 13.83132 100.89110 5796 ft 247 kts 346°
2026-04-30 20:58 13.84833 100.89058 5448 ft 245 kts 11°
2026-04-30 20:59 13.88112 100.89903 4866 ft 242 kts 15°
2026-04-30 20:59 13.89783 100.89993 4575 ft 242 kts 350°
2026-04-30 21:00 13.92181 100.87859 4014 ft 234 kts 290°
2026-04-30 21:00 13.92889 100.84635 3440 ft 229 kts 266°
2026-04-30 21:01 13.91328 100.82116 2922 ft 215 kts 207°
2026-04-30 21:01 13.89959 100.81580 2828 ft 201 kts 194°
2026-04-30 21:01 13.87444 100.80930 2663 ft 177 kts 193°
2026-04-30 21:02 13.86284 100.80627 2567 ft 168 kts 193°
2026-04-30 21:02 13.85182 100.80337 2449 ft 162 kts 194°
2026-04-30 21:02 13.84085 100.80046 2257 ft 162 kts 193°
2026-04-30 21:02 13.82995 100.79756 2048 ft 162 kts 193°
2026-04-30 21:03 13.81899 100.79465 1852 ft 163 kts 193°
2026-04-30 21:03 13.80803 100.79175 1673 ft 164 kts 192°
2026-04-30 21:03 13.79682 100.78878 1588 ft 161 kts 193°
2026-04-30 21:03 13.78656 100.78606 1579 ft 146 kts 192°
2026-04-30 21:04 13.77680 100.78348 1591 ft 145 kts 192°
2026-04-30 21:04 13.76690 100.78088 1531 ft 149 kts 192°
2026-04-30 21:04 13.74714 100.77567 1052 ft 144 kts 193°
2026-04-30 21:05 13.73742 100.77313 852 ft 144 kts 193°
2026-04-30 21:05 13.73104 100.77145 758 ft 144 kts 194°
2026-04-30 21:05 13.71810 100.76808 499 ft 142 kts 192°
2026-04-30 21:05 13.71178 100.76643 391 ft 142 kts 195°
2026-04-30 21:06 13.70219 100.76383 228 ft 144 kts 193°
2026-04-30 21:06 13.69253 100.76136 69 ft 142 kts 193°
2026-04-30 21:06 13.68317 100.75891 17 ft 126 kts 197°
2026-04-30 21:06 13.67633 100.75703 15 ft 86 kts 195°
2026-04-30 21:07 13.67213 100.75557 17 ft 31 kts 217°
2026-04-30 21:07 13.67112 100.75464 17 ft 12 kts 230°
2026-04-30 21:07 13.67118 100.75395 17 ft 9 kts 319°
2026-04-30 21:07 13.67187 100.75391 17 ft 16 kts 15°
2026-04-30 21:08 13.67307 100.75424 17 ft 19 kts 14°
2026-04-30 21:08 13.67436 100.75458 17 ft 20 kts 14°
2026-04-30 21:08 13.67573 100.75493 17 ft 21 kts 14°
2026-04-30 21:08 13.67710 100.75529 17 ft 18 kts 15°
2026-04-30 21:09 13.67822 100.75559 17 ft 17 kts 14°
2026-04-30 21:09 13.67943 100.75591 17 ft 18 kts 15°
2026-04-30 21:09 13.68072 100.75625 16 ft 20 kts 14°
2026-04-30 21:09 13.68208 100.75661 17 ft 17 kts 14°
2026-04-30 21:10 13.68320 100.75690 17 ft 17 kts 14°
2026-04-30 21:10 13.68422 100.75705 17 ft 11 kts 340°
2026-04-30 21:10 13.68456 100.75644 17 ft 11 kts 291°
2026-04-30 21:10 13.68477 100.75564 17 ft 13 kts 284°
2026-04-30 21:11 13.68502 100.75465 17 ft 15 kts 284°
2026-04-30 21:11 13.68530 100.75360 17 ft 16 kts 285°
2026-04-30 21:11 13.68559 100.75243 17 ft 18 kts 284°
2026-04-30 21:11 13.68587 100.75130 17 ft 16 kts 285°
2026-04-30 21:12 13.68616 100.75075 17 ft 4 kts 339°
2026-04-30 21:12 13.68694 100.75084 17 ft 14 kts 13°
2026-04-30 21:12 13.68798 100.75111 17 ft 16 kts 14°
2026-04-30 21:12 13.68885 100.75134 17 ft 6 kts
2026-04-30 21:13 13.68907 100.75116 17 ft 5 kts 303°
2026-04-30 21:13 13.68917 100.75086 17 ft 2 kts 278°
2026-04-30 21:13 13.68920 100.75073 17 ft 2 kts 284°
2026-04-30 21:13 13.68923 100.75062 17 ft 0 kts 284°
2026-04-30 21:14 13.68923 100.75061 17 ft 0 kts 284°
2026-04-30 21:14 13.68923 100.75062 17 ft 0 kts 284°
2026-04-30 21:14 13.68923 100.75061 17 ft 0 kts 284°
2026-04-30 21:15 13.68926 100.75049 16 ft 0 kts 284°
2026-04-30 21:15 13.68923 100.75061 17 ft 0 kts 287°